Weather Roundup
Issued by NWS Corpus Christi, TX

Home | Current Version | Previous Version | Text Only | Print | Product List | Glossary On
Versions: 1 2 3 4 5 6 7 8 9 10 11 12 13 14 15 16 17 18 19 20 21 22 23 24 25 26 27 28 29 30 31 32 33 34 35 36 37 38 39 40 41 42 43 44 45 46 47 48 49 50
000
ASUS44 KCRP 011610
HRRCRP

SOUTH TEXAS REGIONAL WEATHER ROUNDUP
NATIONAL WEATHER SERVICE CORPUS CHRISTI TX
1100 AM CDT FRI AUG 01 2014


TXZ229>244-011700-
...CORPUS CHRISTI AREA OBSERVATIONS...

CITY           SKY/WX    TMP DP  RH WIND       PRES   REMARKS
CORPUS CHRISTI PTSUNNY   88  74  63 S10       29.98S HX  96
NAS CORPUS CHR CLOUDY    87  78  74 SE10      29.98S HX 100
ROCKPORT       PTSUNNY   89  75  63 S8        29.97S HX  99
KINGSVILLE NAS PTSUNNY   89  76  65 S10       29.96F HX 100
ALICE          PTSUNNY   88  73  61 S8        29.96F HX  95
FALFURRIAS     CLOUDY    76  73  88 SE3       29.97S
$$

...VICTORIA AREA OBSERVATIONS...

CITY           SKY/WX    TMP DP  RH WIND       PRES   REMARKS
VICTORIA       PTSUNNY   87  75  67 VRB5      29.99S HX  96
BEEVILLE       FAIR      90  70  52 S5        29.98S HX  95
PLEASANTON     SUNNY     86  67  53 N8        30.02S
SAN ANTONIO    CLOUDY    80  64  58 N8        30.04S
$$

...LAREDO AREA OBSERVATIONS...

CITY           SKY/WX    TMP DP  RH WIND       PRES   REMARKS
LAREDO         MOSUNNY   88  74  63 E7        30.00S HX  96
COTULLA        PTSUNNY   86  71  60 E3        29.99S HX  91
DEL RIO        CLOUDY    83  64  52 N3        30.06R
MCALLEN        MOSUNNY   90  73  57 S9        29.95S HX  98
HEBBRONVILLE   MOSUNNY   85  73  66 E5        29.99S HX  91
$$

...OTHER TEXAS OBSERVATIONS...

CITY           SKY/WX    TMP DP  RH WIND       PRES   REMARKS
BROWNSVILLE    PTSUNNY   90  73  57 S18       29.95S HX  98
HOUSTON        PTSUNNY   81  72  74 W6        29.99S
COL. STATION   CLOUDY    75  69  81 N8        30.02R
AUSTIN         PTSUNNY   81  66  60 N9        30.03S
WACO           CLOUDY    75  66  73 N12       30.05R
FORT WORTH     CLOUDY    74  66  76 NE9       30.06S
WICHITA FALLS  PTSUNNY   76  66  71 N6        30.10S
LUBBOCK        MOSUNNY   77  58  51 NW8       30.20S
EL PASO        CLOUDY    68  64  87 N10       30.18F
$$

...MARINE OBSERVATIONS...

STATION/POSITION TIME  SKY/WX   TEMP    WIND        PRES    VSBY  WAVE   SWELL
                                AIR SEA DIR/SP/G                  HT/PER HT/PER
                 (UTC)          (F)     (DEG/KT/KT) (MB)    (MI)  (FT/S) (FT/S)
PORT ARANSAS     1600            81 81   90/  4/  5 1015.9R
BUOY 90 E PORT A 1600            84 83  240/  6/  8 1015.9R
BUOY 45 SE BAFFI 1600            83 83  150/  6/  8 1015.0R         2/ 5   2/ 5
BUOY 200 E PT IS 1600            85 86  250/  8/  8 1015.6R         1/ 4
BUOY 15 E GALVES NOT AVBL
$$



USA.gov is the U.S. government's official web portal to all federal, state and local government web resources and services.